CDT,Max TemperatureF,Mean TemperatureF,Min TemperatureF,Max Dew PointF,MeanDew PointF,Min DewpointF,Max Humidity, Mean Humidity, Min Humidity, Max Sea Level PressureIn, Mean Sea Level PressureIn, Min Sea Level PressureIn, Max VisibilityMiles, Mean VisibilityMiles, Min VisibilityMiles, Max Wind SpeedMPH, Mean Wind SpeedMPH, Max Gust SpeedMPH,PrecipitationIn, CloudCover, Events, WindDirDegrees
2012-10-1,77,61,45,51,46,40,86,64,41,30.01,29.95,29.91,,,,31,11,40,0.00,,,352
2012-10-2,77,60,42,45,37,29,83,51,18,30.06,29.97,29.88,,,,12,4,14,0.00,,,300
2012-10-3,83,63,43,51,43,37,76,52,28,29.92,29.88,29.79,,,,23,10,31,0.00,,,166
2012-10-4,66,59,52,51,39,34,75,55,34,30.25,30.16,29.91,,,,26,14,34,0.00,,,32
2012-10-5,61,51,40,38,32,24,65,47,28,30.34,30.24,30.20,,,,23,13,29,0.00,,,38
2012-10-6,48,42,35,35,32,28,82,68,53,30.40,30.35,30.30,,,,17,8,23,0.01,,,22
2012-10-7,55,42,28,34,28,26,92,64,35,30.39,30.30,30.19,,,,12,4,15,0.00,,,253
2012-10-8,71,53,35,34,31,27,76,50,23,30.19,30.05,29.93,,,,22,10,30,0.00,,,175
2012-10-9,73,58,43,44,40,35,76,56,35,30.18,29.93,29.83,,,,25,10,32,0.00,,,72
2012-10-10,68,52,35,35,29,24,76,48,20,30.31,30.20,30.09,,,,15,5,20,0.00,,,148
2012-10-11,88,71,53,61,50,37,66,51,36,30.07,29.99,29.88,,,,25,11,33,0.00,,,184
2012-10-12,62,57,51,56,48,38,100,72,44,30.20,30.10,29.96,,,,18,7,24,0.04,,,13
2012-10-13,86,72,58,67,53,25,100,56,12,29.93,29.74,29.57,,,,30,12,41,0.02,,,196
2012-10-14,78,63,48,46,41,37,67,46,24,30.08,29.97,29.68,,,,22,11,31,0.00,,,330
2012-10-15,88,68,47,42,39,37,71,44,17,30.06,29.92,29.77,,,,22,8,32,0.00,,,208
2012-10-16,83,67,51,54,46,41,67,47,26,29.76,29.62,29.47,,,,13,6,19,0.00,,,180
2012-10-17,73,58,43,55,37,18,93,55,16,29.86,29.60,29.35,,,,36,15,50,0.00,,,353
2012-10-18,68,53,38,22,16,12,48,30,11,29.96,29.91,29.86,,,,38,19,58,0.00,,,308
2012-10-19,74,58,41,23,17,8,36,23,9,29.95,29.89,29.81,,,,29,12,38,0.00,,,327
2012-10-20,85,62,38,51,34,17,67,44,20,29.81,29.72,29.63,,,,15,5,20,0.00,,,149
2012-10-21,93,71,48,64,53,40,100,61,21,29.68,29.63,29.56,,,,24,10,33,0.00,,,153
2012-10-22,73,61,48,64,54,43,100,75,49,29.85,29.75,29.64,,,,15,6,23,0.00,,,219
2012-10-23,92,77,62,64,55,34,93,53,13,29.75,29.69,29.62,,,,23,12,29,0.00,,,182
2012-10-24,82,73,64,64,63,62,93,76,58,29.73,29.68,29.58,,,,24,13,33,0.00,,,175
2012-10-25,72,53,33,63,37,27,80,61,41,30.35,30.01,29.55,,,,32,18,43,0.00,,,358
2012-10-26,49,38,26,29,24,20,85,60,34,30.56,30.45,30.33,,,,23,11,30,0.00,,,12
2012-10-27,51,35,19,25,21,16,84,59,33,30.45,30.35,30.24,,,,12,4,18,0.00,,,153
2012-10-28,60,42,24,26,23,18,74,51,28,30.32,30.25,30.18,,,,15,7,21,0.00,,,139
2012-10-29,71,53,34,30,28,26,75,49,22,30.23,30.15,30.04,,,,20,8,24,0.00,,,175
2012-10-30,83,62,41,38,35,30,62,41,20,30.03,29.95,29.85,,,,20,6,24,0.00,,,359
2012-10-31,75,55,35,39,36,30,82,55,27,30.10,30.02,29.94,,,,15,5,19,0.00,,,81